Location: Larkspur
(54.4391°N, 113.7691°W)
Time: 00:28:40
(UTC+00:00)

YUBILEINY - Pass Details

Date: 06 December 2023
Orbit: 1479 x 1508 km, 82.5° (Epoch: 03 March)

Event Time Altitude Azimuth Distance (km) Brightness Sun altitude
Rises 05:07:46 0° 347° (NNW) 4,635 ? -48.9°
Reaches altitude 10° 05:10:53 10° 340° (NNW) 3,647 ? -49.3°
Enters shadow 05:16:21 33° 308° (NW) 2,305 ? -49.9°
